Location: Bern�tre
(50.1974°N, 2.0915°E)
Time: 04:48:48
(UTC+00:00)

MOS 1 Rocket - Pass Details

Date: 18 September 2020
Orbit: 614 x 831 km, 97.4° (Epoch: 29 October)

Event Time Altitude Azimuth Distance (km) Brightness Sun altitude
Rises 18:56:33 0° 15° (NNE) 3,046 6.6 -10.1°
Reaches altitude 10° 18:58:52 10° 18° (NNE) 2,096 5.8 -10.5°
Maximum altitude 19:03:23 65° 101° (E) 708 3.1 -11.2°
Drops below altitude 10° 19:07:41 10° 183° (S) 1,992 5.5 -11.8°
Sets 19:09:50 0° 187° (S) 2,881 6.4 -12.2°
